FW8513 Weather Reports


Display with metric or nautical units.
time (UTC)temp
F
wind
direction
speed
MPH
gust
MPH
rain 1hr
in
rain 24hr
in
rain mn
in
humidity
%
barometer
mb
20260905174547 54 286 1.0 3.0 0.00 0.09 0.07 84 1021.4
20260905173053 54 286 1.0 7.0 0.00 0.09 0.07 85 1021.0
20260905171549 54 273 5.0 8.0 0.00 0.09 0.07 85 1021.4
20260905170043 54 51 1.0 3.0 0.00 0.09 0.07 85 1021.0
20260905164543 53 0 0.0 4.0 0.00 0.09 0.07 85 1020.8
20260905163053 53 51 4.0 6.0 0.01 0.09 0.07 85 1020.3
20260905161548 53 50 3.0 5.0 0.01 0.09 0.07 85 1020.9
20260905160049 52 47 3.0 6.0 0.01 0.09 0.07 85 1020.9
20260905154610 52 24 3.0 5.0 0.01 0.09 0.07 84 1021.1
20260905153048 52 321 3.0 8.0 0.00 0.08 0.06 84 1021.1
20260905151554 53 317 5.0 9.0 0.00 0.08 0.06 84 1020.9
20260905150051 52 128 0.0 6.0 0.00 0.08 0.06 84 1020.2
20260905144549 52 126 2.0 7.0 0.00 0.08 0.06 85 1020.4
20260905143056 51 124 6.0 10.0 0.00 0.08 0.06 85 1020.2
20260905141550 50 89 2.0 4.0 0.01 0.08 0.06 84 1020.1
20260905140049 50 80 7.0 10.0 0.03 0.08 0.06 84 1019.9
20260905134542 50 72 4.0 8.0 0.03 0.08 0.06 84 1020.2
20260905133052 51 51 3.0 5.0 0.03 0.08 0.06 83 1020.2
20260905131549 51 0 0.0 2.0 0.03 0.07 0.05 83 1020.7
20260905130053 50 0 0.0 2.0 0.01 0.05 0.03 82 1020.5
20260905124542 50 44 2.0 4.0 0.01 0.05 0.03 81 1020.3
20260905123057 51 44 1.0 3.0 0.02 0.05 0.03 79 1019.7
20260905121545 51 45 0.0 2.0 0.02 0.04 0.02 77 1020.0
20260905120047 51 45 1.0 3.0 0.02 0.04 0.02 76 1019.8
20260905114549 51 45 1.0 3.0 0.01 0.03 0.01 76 1020.0
20260905113050 51 0 0.0 4.0 0.00 0.02 0.00 76 1020.0
20260905111612 51 44 2.0 5.0 0.00 0.02 0.00 74 1019.4
20260905110043 52 43 1.0 4.0 0.00 0.02 0.00 72 1019.5
20260905104547 52 42 2.0 5.0 0.00 0.02 0.00 72 1019.3
20260905103048 53 19 4.0 5.0 0.00 0.02 0.00 68 1019.1
20260905101550 52 9 1.0 3.0 0.00 0.02 0.00 68 1019.2
20260905100048 52 5 0.0 3.0 0.00 0.02 0.00 70 1019.3
20260905094550 52 5 4.0 7.0 0.00 0.02 0.00 69 1018.4
20260905093044 52 45 2.0 4.0 0.00 0.02 0.00 69 1018.4
20260905091542 53 44 2.0 6.0 0.00 0.02 0.00 68 1017.6
20260905090049 53 17 3.0 5.0 0.00 0.02 0.00 67 1017.9
20260905084549 53 19 4.0 7.0 0.00 0.02 0.00 67 1018.0
20260905083042 52 50 2.0 5.0 0.00 0.02 0.00 66 1017.9
20260905081550 52 69 2.0 3.0 0.00 0.02 0.00 71 1017.8
20260905080058 52 0 0.0 2.0 0.00 0.02 0.00 72 1018.2
20260905074554 53 69 2.0 5.0 0.00 0.02 0.00 70 1017.8
20260905073047 52 76 0.0 3.0 0.00 0.02 0.00 69 1017.9
20260905071541 53 76 2.0 8.0 0.00 0.02 0.00 70 1017.7
20260905070054 54 331 2.0 4.0 0.00 0.02 0.00 67 1017.5
20260905064548 55 317 3.0 5.0 0.00 0.02 0.00 68 1017.7
20260905063044 55 311 2.0 9.0 0.00 0.02 0.00 67 1018.0
20260905061557 55 303 2.0 5.0 0.00 0.02 0.00 66 1017.8
20260905060057 54 300 3.0 9.0 0.00 0.02 0.00 66 1018.0
20260905054549 54 311 7.0 12.0 0.02 0.02 0.02 66 1017.7
20260905053046 54 327 8.0 12.0 0.02 0.02 0.02 65 1017.4
20260905051545 54 321 8.0 13.0 0.02 0.02 0.02 66 1017.8
20260905050057 54 316 6.0 13.0 0.02 0.02 0.02 68 1018.1
20260905044550 57 282 7.0 11.0 0.00 0.00 0.00 61 1018.7
20260905043054 58 323 4.0 9.0 0.00 0.00 0.00 58 1018.1
20260905041543 60 320 7.0 10.0 0.00 0.00 0.00 51 1017.8
20260905040049 59 331 7.0 11.0 0.00 0.00 0.00 51 1017.6
20260905034554 59 329 5.0 10.0 0.00 0.00 0.00 52 1017.5
20260905033109 60 339 8.0 11.0 0.00 0.00 0.00 52 1017.0
20260905031602 60 342 6.0 9.0 0.00 0.00 0.00 52 1016.8
20260905030056 61 346 6.0 10.0 0.00 0.00 0.00 51 1016.5
20260905024543 62 331 5.0 11.0 0.00 0.00 0.00 50 1016.6
20260905023053 63 355 8.0 11.0 0.00 0.00 0.00 49 1015.8
20260905021552 63 5 6.0 11.0 0.00 0.00 0.00 47 1016.0
20260905020048 64 15 6.0 11.0 0.00 0.00 0.00 47 1015.7
20260905014542 64 18 8.0 12.0 0.00 0.00 0.00 46 1015.1
20260905013046 64 28 7.0 13.0 0.00 0.00 0.00 45 1014.9
20260905011547 65 15 7.0 12.0 0.00 0.00 0.00 44 1014.6
20260905010057 67 32 8.0 12.0 0.00 0.00 0.00 42 1014.8
20260905004542 68 5 7.0 14.0 0.00 0.00 0.00 41 1014.8
20260905003052 69 12 10.0 15.0 0.00 0.00 0.00 40 1014.7
20260905001553 69 28 8.0 17.0 0.00 0.00 0.00 39 1014.7
20260905000055 70 37 11.0 16.0 0.00 0.00 0.00 40 1014.4
20260904234544 70 355 9.0 14.0 0.00 0.00 0.00 39 1014.3
20260904233051 70 9 8.0 15.0 0.00 0.00 0.00 38 1014.2
20260904231548 71 290 11.0 17.0 0.00 0.00 0.00 38 1014.1
20260904230106 70 307 9.0 14.0 0.00 0.00 0.00 38 1014.2
20260904224544 70 335 11.0 19.0 0.00 0.00 0.00 39 1014.1
20260904223045 70 343 14.0 19.0 0.00 0.00 0.00 39 1014.1
20260904221545 70 311 13.0 19.0 0.00 0.00 0.00 39 1013.8
20260904220052 70 355 11.0 18.0 0.00 0.00 0.00 40 1013.7
20260904214548 69 342 10.0 18.0 0.00 0.00 0.00 40 1013.6
20260904213049 69 340 12.0 19.0 0.00 0.00 0.00 40 1013.4
20260904211547 69 313 14.0 21.0 0.00 0.00 0.00 41 1013.4
20260904210045 69 325 13.0 18.0 0.00 0.00 0.00 40 1013.3
20260904204550 69 324 14.0 21.0 0.00 0.00 0.00 40 1012.9
20260904203049 69 325 12.0 20.0 0.00 0.00 0.00 38 1012.8
20260904201607 69 341 15.0 22.0 0.00 0.00 0.00 39 1012.5
20260904200058 68 352 14.0 22.0 0.00 0.00 0.00 39 1012.4
20260904194551 66 320 11.0 20.0 0.00 0.00 0.00 41 1012.5
20260904193047 66 329 12.0 22.0 0.00 0.00 0.00 42 1012.3
20260904191544 66 320 12.0 17.0 0.00 0.00 0.00 42 1012.3
20260904190054 65 318 11.0 17.0 0.00 0.00 0.00 42 1012.3
20260904184541 64 9 10.0 16.0 0.00 0.00 0.00 44 1012.0
20260904183105 62 335 9.0 16.0 0.00 0.00 0.00 45 1012.1
20260904181544 62 34 10.0 15.0 0.00 0.00 0.00 46 1011.8
20260904180044 60 22 9.0 16.0 0.00 0.00 0.00 48 1012.0